Location: West Cummington
(42.4920°N, 72.9680°W)
Time: 14:47:53
(UTC-04:00)

Daily predictions for brighter satellites

Satellite Brightness Start Highest point End
(mag) Time Altitude Azimuth Time Altitude Azimuth Time Altitude Azimuth
Cosmos 990 Rocket 4.5 20:41:25 10° SSW 20:46:36 69° WNW 20:51:52 10° NNE
Envisat 3.1 20:42:27 10° SSE 20:47:33 88° ENE 20:52:40 10° NNW
TIMED 4.5 20:47:39 10° S 20:51:58 67° ESE 20:56:20 10° NNE
Tsikada Rocket 4.5 20:46:28 10° SSW 20:52:38 68° W 20:58:48 10° N
Cosmos 1939 Rocket 2.9 20:48:55 10° SSE 20:53:03 76° ENE 20:57:10 10° N
Helios 1A 3.1 20:50:09 10° SSE 20:54:15 59° ENE 20:58:25 10° N
Cosmos 2221 Rocket 3.9 20:50:41 10° N 20:55:00 48° ENE 20:59:19 10° SSE
Cosmos 1825 3.0 20:54:52 10° SSE 20:58:12 30° E 21:01:33 10° NNE
SJ-11-01 4.3 20:58:38 10° SSE 21:03:21 89° WSW 21:08:05 10° NNW
Meteor 2-3 Rocket 4.0 20:57:57 10° SSW 21:03:40 75° W 21:09:20 10° N
Cosmos 1125 Rocket 3.6 20:58:36 10° S 21:03:41 53° ESE 21:08:46 10° NNE
Cosmos 1634 Rocket 4.1 20:58:24 10° N 21:04:45 84° E 21:11:05 10° S
Cosmos 2344 3.9 21:04:26 10° S 21:11:33 44° ESE 21:19:14 10° NE
USA 186 4.1 21:10:27 10° SW 21:12:36 20° W 21:14:53 10° NW
BREEZE M DEB (TANK) 4.5 20:58:24 10° SW 21:14:40 66° SSE 21:19:02 10° ENE
Cosmos 1782 2.8 21:11:11 10° N 21:15:10 65° E 21:19:07 10° SSE
Cosmos 1943 Rocket 2.2 21:09:46 10° S 21:15:15 62° ESE 21:20:45 10° NNE
deb Kosmos-1763 4.1 21:17:41 10° NNW 21:21:28 70° ENE 21:24:31 15° SSE
Cosmos 158 Rocket 3.8 21:18:31 10° NNW 21:23:25 79° ENE 21:27:46 13° SSE
Resurs 01 Rocket 4.2 21:24:43 10° SW 21:27:55 19° W 21:31:09 10° NW
Okean 1-7 3.2 21:23:36 10° NNW 21:28:00 75° W 21:32:22 10° S
DELTA 2 R/B(2) 3.5 21:28:46 10° WSW 21:30:21 34° S 21:30:23 34° S
SAR-Lupe-4 3.6 21:27:23 12° SSE 21:30:40 84° WSW 21:34:16 10° NNW
Cosmos 1340 2.7 21:27:50 10° N 21:31:37 65° ENE 21:34:23 17° SSE
NOAA 11 4.2 21:29:43 11° SSE 21:34:57 82° ENE 21:40:29 10° NNW
Cosmos 2279 Rocket 4.0 21:29:51 10° N 21:36:09 87° E 21:42:23 10° S
Cosmos 1867 4.3 21:31:36 10° NNW 21:36:46 41° NE 21:40:29 17° ESE
Cosmos 1862 3.4 21:33:56 13° SSE 21:37:15 52° E 21:41:07 10° NNE
Meteor 1-29 3.5 21:36:54 10° N 21:40:22 60° WNW 21:43:47 10° SSW
YAOGAN 6 4.0 21:38:12 10° SSW 21:41:40 37° W 21:45:08 10° NNW
H-2A R/B 2.6 21:40:00 19° SE 21:43:29 44° ENE 21:48:29 10° N
CZ-4B DEB 3.9 21:41:28 11° SSW 21:44:06 35° W 21:46:50 10° NNW
Terra 3.4 21:42:01 15° E 21:44:14 21° ENE 21:47:44 10° NNE
Cosmos 2369 Rocket 3.4 21:39:15 10° SW 21:44:40 45° WNW 21:50:09 10° NNE
ISS -1.6 21:42:26 10° W 21:45:17 27° NNW 21:48:08 10° NE
Helios 1B rocket 3.6 21:43:40 10° N 21:47:36 44° WNW 21:51:29 10° SW
ERS-1 Rocket 3.1 21:43:42 13° S 21:48:12 76° WSW 21:53:16 10° NNW
Cosmos 1606 3.7 21:49:43 10° NNW 21:53:20 44° W 21:56:41 12° SSW
GPS 2-04 Rocket1 4.2 21:52:29 10° WSW 21:55:05 18° SSW 21:55:27 18° S
Cosmos 1833 4.3 21:49:47 10° NNW 21:55:36 82° WSW 21:59:28 22° SSE
Lacrosse 4 Rocket 1.8 21:52:42 10° NW 21:57:09 62° WSW 21:59:44 24° S
MetOp-B 4.2 21:53:50 16° S 21:58:06 78° WSW 22:03:29 10° NNW
USA 215 3.3 21:53:28 20° ESE 21:58:12 79° NE 22:04:47 10° NW
H-2A ROCKET BODY 4.0 21:56:34 10° SSW 21:58:45 15° S 21:58:45 15° S
Cosmos 1733 Rocket 2.9 21:56:23 19° S 21:59:25 73° E 22:03:45 10° NNE
ATLAS 5 CENTAUR R/B 2.7 21:54:16 10° NW 22:00:14 62° WSW 22:04:39 21° SSE
Cosmos 2297 Rocket 4.3 21:59:43 10° N 22:03:02 16° NE 22:06:20 10° E
Milstar 3 4.0 21:54:36 10° WSW 22:04:23 32° S 22:07:43 24° SE
ATLAS CENTAUR R/B 1.8 22:05:12 35° ESE 22:05:17 35° ESE 22:08:51 10° NE
Cosmos 1437 3.1 22:05:46 10° N 22:08:52 44° ENE 22:09:07 43° E
Cosmos 1656 Rocket 3.5 22:04:20 10° SSW 22:09:45 77° ESE 22:15:18 10° NNE
SPOT 5 3.1 22:06:19 23° SSE 22:09:46 85° WSW 22:15:04 10° NNW
ARGOS 3.4 22:10:08 20° S 22:13:51 68° WSW 22:19:13 10° NNW
Meteor 2-20 4.4 22:10:02 21° S 22:14:09 66° E 22:20:12 10° NNE
Alouette 2 Rocket 4.4 22:07:29 10° S 22:15:10 88° E 22:20:04 10° NNE
Lacrosse 5 rocket 3.9 22:13:58 10° WNW 22:16:42 20° NNW 22:19:30 10° NNE
Sich 1 Rocket 3.9 22:18:37 39° SE 22:19:35 46° E 22:23:50 10° NNE
CENTAUR R/B 3.6 22:14:38 10° WSW 22:20:32 47° NW 22:27:17 10° NNE
Cosmos 1346 3.5 22:20:44 10° N 22:22:51 46° NNE 22:22:51 46° NNE
Cosmos 1975 Rocket 4.0 22:20:53 10° NNE 22:24:53 31° ENE 22:25:33 30° E
Meteor 1-27 Rocket 4.4 22:21:59 10° NNW 22:27:31 50° W 22:31:31 18° SSW
Cosmos 2251 Rocket 3.4 22:27:20 10° NNW 22:32:36 85° ENE 22:34:28 41° SSE
Cosmos 2026 Rocket 4.2 22:30:33 35° SE 22:32:50 51° E 22:38:52 10° NNE
CARTOSAT-1 3.7 22:33:14 48° ESE 22:34:05 59° ENE 22:38:21 10° N
Cosmos 1378 Rocket 3.5 22:31:35 10° N 22:36:02 75° E 22:37:01 53° SSE
Cosmos 1674 Rocket 3.9 22:32:06 10° NNW 22:36:21 58° W 22:37:55 35° SSW
DMSP B5D2-2 4.0 22:36:01 10° NNE 22:41:16 86° ESE 22:43:39 34° SSW
SPOT 1/Viking Rocket 4.0 22:39:33 30° SSW 22:41:58 58° W 22:47:08 10° NNW
Okean 3 3.4 22:38:56 10° N 22:43:08 81° W 22:43:55 58° S
IGS 5A 3.3 22:43:48 63° SE 22:44:18 73° ENE 22:48:27 10° N
H-2A R/B 2.2 22:50:34 52° E 22:50:44 53° ENE 22:54:47 10° N
Meteor 1-25 Rocket 4.3 22:50:55 45° SSE 22:52:37 66° E 22:58:24 10° NNE
Cosmos 2227 Rocket 3.0 22:48:20 10° N 22:53:39 40° ENE 22:55:17 33° E
S3M 4.4 22:52:13 10° N 22:58:08 48° ENE 22:59:37 41° ESE
Cosmos 1092 Rocket 4.4 22:56:29 21° SSW 23:00:37 58° W 23:06:41 10° N
Cosmos 2219 3.4 22:56:44 10° NNW 23:02:27 65° WSW 23:04:04 46° S
GEOS 3 Rocket 3.5 23:05:52 58° SE 23:06:57 87° NE 23:12:13 10° NW
Cosmos 1812 2.9 23:04:05 10° NNW 23:07:47 69° WNW 23:07:47 69° WNW
Cosmos 1553 Rocket 4.0 23:08:58 10° N 23:15:20 72° E 23:16:48 53° SE
Cosmos 1980 Rocket 4.3 23:20:06 12° ENE 23:20:06 12° ENE 23:21:09 10° ENE
Cosmos 2369 4.0 23:20:17 48° E 23:20:17 48° E 23:25:34 10° NE
Terra 2.4 23:20:55 42° SW 23:21:39 45° W 23:26:14 10° NNW
ISS -0.8 23:20:23 10° NW 23:22:32 16° N 23:24:41 10° NE
H-2A R/B 3.8 23:20:37 18° SW 23:23:01 25° W 23:27:21 10° NW
CZ-4B R/B 3.3 23:18:24 10° NNE 23:23:15 69° E 23:23:15 69° E
Meteor 2-4 Rocket 4.4 23:23:53 10° N 23:28:51 37° ENE 23:29:12 37° E
Okean 2 Rocket 3.2 23:29:03 71° WNW 23:29:03 71° WNW 23:33:28 10° N
Cosmos 405 Rocket 3.8 23:27:05 10° NNW 23:29:59 37° WNW 23:29:59 37° WNW
APEX 4.0 23:29:14 10° NNW 23:32:37 51° NW 23:32:37 51° NW
Meteor 1-11 Rocket 4.1 23:33:20 50° ESE 23:33:37 50° E 23:39:21 10° NNE
Gbstr 26 Del rocket 3.4 23:31:33 10° NW 23:35:02 54° NW 23:35:02 54° NW
deb Chang Zheng 4 3.9 23:35:00 10° N 23:39:23 60° WNW 23:39:30 60° W
Cosmos 2056 Rocket 4.2 23:40:28 40° ENE 23:40:28 40° ENE 23:44:24 10° NNE
DELTA 2 DEB (DPAF) 4.2 23:40:35 72° NW 23:40:35 72° NW 23:44:44 10° NNW
USA 215 4.2 23:40:49 29° SW 23:41:35 30° SW 23:47:14 10° WNW
CZ-4C R/B 3.9 23:43:49 61° NNW 23:43:49 61° NNW 23:47:16 10° NNW
Cosmos 1697 Rocket 3.5 23:45:10 36° E 23:45:10 36° E 23:49:25 10° NE
ATLAS CENTAUR R/B 3.5 23:41:20 11° W 23:44:20 23° NW 23:47:27 10° N
Cosmos 2266 Rocket 3.9 23:44:11 61° SE 23:44:47 65° E 23:50:51 10° NNE
CZ-2C R/B 3.2 23:45:38 55° ENE 23:45:38 55° ENE 23:50:26 10° N
Okean 1 4.4 23:42:47 10° NNW 23:45:55 41° WNW 23:45:55 41° WNW
Cosmos 2297 Rocket 2.0 23:42:15 10° NNW 23:47:58 85° ENE 23:48:21 78° SE
BREEZE-M DEB (TANK) 4.4 23:31:47 10° WNW 23:49:40 67° SW 23:50:53 57° SSE
ARGOS Delta rocket 4.3 23:50:24 10° N 23:54:43 49° WNW 23:54:43 49° WNW
